| time (UTC) | temp F | wind direction | speed MPH | gust MPH | rain 1hr in | rain 24hr in | rain mn in | humidity % | barometer mb |
| 20260505124536 | 67 | 134 | 1.0 | 5.0 | 0.00 | 0.00 | 0.00 | 70 | 1016.8 |
| 20260505123046 | 66 | 60 | 0.0 | 2.0 | 0.00 | 0.00 | 0.00 | 73 | 1016.7 |
| 20260505121533 | 63 | 94 | 1.0 | 4.0 | 0.00 | 0.00 | 0.00 | 76 | 1016.7 |
| 20260505120037 | 61 | 77 | 0.0 | 3.0 | 0.00 | 0.00 | 0.00 | 79 | 1016.7 |
| 20260505114533 | 60 | 119 | 0.0 | 4.0 | 0.00 | 0.00 | 0.00 | 80 | 1016.7 |
| 20260505113024 | 59 | 103 | 0.0 | 3.0 | 0.00 | 0.00 | 0.00 | 81 | 1016.6 |
| 20260505111523 | 58 | 85 | 0.0 | 3.0 | 0.00 | 0.00 | 0.00 | 82 | 1016.5 |
| 20260505101519 | 58 | 89 | 0.0 | 3.0 | 0.00 | 0.00 | 0.00 | 81 | 1015.9 |
| 20260505100016 | 58 | 105 | 0.0 | 2.0 | 0.00 | 0.00 | 0.00 | 81 | 1015.6 |
| 20260505094512 | 58 | 120 | 0.0 | 1.0 | 0.00 | 0.00 | 0.00 | 80 | 1015.5 |
| 20260505093011 | 58 | 101 | 0.0 | 1.0 | 0.00 | 0.00 | 0.00 | 80 | 1015.4 |
| 20260505091509 | 58 | 101 | 0.0 | 1.0 | 0.00 | 0.00 | 0.00 | 80 | 1015.4 |
| 20260505090009 | 58 | 98 | 0.0 | 3.0 | 0.00 | 0.00 | 0.00 | 80 | 1015.3 |
| 20260505084509 | 58 | 91 | 0.0 | 2.0 | 0.00 | 0.00 | 0.00 | 79 | 1015.3 |
| 20260505083006 | 59 | 91 | 0.0 | 2.0 | 0.00 | 0.00 | 0.00 | 79 | 1015.3 |
| 20260505081502 | 59 | 118 | 0.0 | 1.0 | 0.00 | 0.00 | 0.00 | 78 | 1015.3 |
| 20260505080002 | 59 | 94 | 0.0 | 1.0 | 0.00 | 0.00 | 0.00 | 78 | 1015.1 |
| 20260505074559 | 60 | 94 | 0.0 | 2.0 | 0.00 | 0.00 | 0.00 | 77 | 1015.0 |
| 20260505073100 | 60 | 98 | 0.0 | 1.0 | 0.00 | 0.00 | 0.00 | 76 | 1014.9 |
| 20260505071558 | 60 | 98 | 0.0 | 2.0 | 0.00 | 0.00 | 0.00 | 76 | 1014.9 |
| 20260505070057 | 61 | 103 | 0.0 | 2.0 | 0.00 | 0.00 | 0.00 | 75 | 1014.8 |
| 20260505064553 | 61 | 117 | 0.0 | 1.0 | 0.00 | 0.00 | 0.00 | 74 | 1014.7 |
| 20260505063054 | 61 | 117 | 0.0 | 2.0 | 0.00 | 0.00 | 0.00 | 73 | 1014.9 |
| 20260505061550 | 62 | 112 | 0.0 | 1.0 | 0.00 | 0.00 | 0.00 | 72 | 1015.0 |
| 20260505060048 | 62 | 105 | 0.0 | 3.0 | 0.00 | 0.00 | 0.00 | 72 | 1014.9 |
| 20260505054546 | 62 | 119 | 0.0 | 4.0 | 0.00 | 0.00 | 0.00 | 71 | 1015.1 |
| 20260505053045 | 63 | 115 | 0.0 | 3.0 | 0.00 | 0.00 | 0.00 | 70 | 1015.1 |
| 20260505051543 | 63 | 90 | 0.0 | 4.0 | 0.00 | 0.00 | 0.00 | 70 | 1015.2 |
| 20260505050118 | 63 | 97 | 0.0 | 2.0 | 0.00 | 0.00 | 0.00 | 70 | 1015.2 |
| 20260505041550 | 64 | 100 | 1.0 | 9.0 | 0.00 | 0.00 | 0.00 | 70 | 1015.2 |
| 20260505040046 | 64 | 133 | 0.0 | 3.0 | 0.00 | 0.00 | 0.00 | 70 | 1015.0 |
| 20260505034535 | 64 | 77 | 1.0 | 5.0 | 0.00 | 0.00 | 0.00 | 70 | 1015.0 |
| 20260505033037 | 64 | 73 | 1.0 | 8.0 | 0.00 | 0.00 | 0.00 | 69 | 1014.8 |
| 20260505031543 | 64 | 132 | 0.0 | 4.0 | 0.00 | 0.00 | 0.00 | 69 | 1015.0 |
| 20260505030039 | 65 | 127 | 1.0 | 4.0 | 0.00 | 0.00 | 0.00 | 69 | 1015.0 |
| 20260505024533 | 65 | 81 | 0.0 | 6.0 | 0.00 | 0.00 | 0.00 | 69 | 1015.0 |
| 20260505023039 | 65 | 145 | 1.0 | 6.0 | 0.00 | 0.00 | 0.00 | 69 | 1014.7 |
| 20260505021531 | 66 | 32 | 2.0 | 6.0 | 0.00 | 0.00 | 0.00 | 70 | 1014.8 |
| 20260505020034 | 66 | 98 | 1.0 | 2.0 | 0.00 | 0.00 | 0.00 | 69 | 1015.0 |
| 20260505014534 | 66 | 72 | 1.0 | 7.0 | 0.00 | 0.00 | 0.00 | 69 | 1014.8 |
| 20260505013030 | 66 | 86 | 1.0 | 4.0 | 0.00 | 0.00 | 0.00 | 69 | 1014.6 |
| 20260505011531 | 67 | 115 | 0.0 | 4.0 | 0.00 | 0.00 | 0.00 | 69 | 1014.5 |
| 20260505010029 | 67 | 75 | 0.0 | 4.0 | 0.00 | 0.00 | 0.00 | 69 | 1014.1 |
| 20260505004535 | 67 | 77 | 1.0 | 5.0 | 0.00 | 0.00 | 0.00 | 68 | 1013.9 |
| 20260505003027 | 68 | 68 | 1.0 | 5.0 | 0.00 | 0.00 | 0.00 | 66 | 1013.7 |
| 20260505001527 | 69 | 83 | 1.0 | 5.0 | 0.00 | 0.00 | 0.00 | 66 | 1013.7 |
| 20260505000030 | 69 | 91 | 1.0 | 4.0 | 0.00 | 0.00 | 0.00 | 64 | 1013.5 |
| 20260504234525 | 70 | 80 | 1.0 | 6.0 | 0.00 | 0.00 | 0.00 | 63 | 1013.3 |
| 20260504233024 | 71 | 95 | 0.0 | 3.0 | 0.00 | 0.00 | 0.00 | 61 | 1013.2 |
| 20260504231524 | 72 | 102 | 2.0 | 5.0 | 0.00 | 0.00 | 0.00 | 58 | 1013.0 |
| 20260504230021 | 74 | 58 | 0.0 | 5.0 | 0.00 | 0.00 | 0.00 | 56 | 1013.0 |
| 20260504224520 | 76 | 70 | 2.0 | 7.0 | 0.00 | 0.00 | 0.00 | 51 | 1012.8 |
| 20260504223020 | 79 | 119 | 0.0 | 6.0 | 0.00 | 0.00 | 0.00 | 40 | 1012.6 |
| 20260504221520 | 79 | 100 | 0.0 | 5.0 | 0.00 | 0.00 | 0.00 | 40 | 1012.7 |
| 20260504220017 | 79 | 106 | 1.0 | 10.0 | 0.00 | 0.00 | 0.00 | 40 | 1012.6 |
| 20260504214515 | 79 | 37 | 2.0 | 7.0 | 0.00 | 0.00 | 0.00 | 40 | 1012.7 |
| 20260504213035 | 80 | 103 | 2.0 | 6.0 | 0.00 | 0.00 | 0.00 | 39 | 1012.9 |
| 20260504211516 | 81 | 85 | 0.0 | 5.0 | 0.00 | 0.00 | 0.00 | 39 | 1012.9 |
| 20260504210014 | 81 | 108 | 0.0 | 5.0 | 0.00 | 0.00 | 0.00 | 40 | 1013.0 |
| 20260504204510 | 82 | 122 | 1.0 | 6.0 | 0.00 | 0.00 | 0.00 | 39 | 1013.0 |
| 20260504203011 | 81 | 110 | 2.0 | 7.0 | 0.00 | 0.00 | 0.00 | 39 | 1013.0 |
| 20260504201512 | 80 | 92 | 0.0 | 12.0 | 0.00 | 0.00 | 0.00 | 40 | 1013.1 |
| 20260504200005 | 82 | 85 | 1.0 | 6.0 | 0.00 | 0.00 | 0.00 | 41 | 1013.2 |
| 20260504194504 | 81 | 105 | 1.0 | 10.0 | 0.00 | 0.00 | 0.00 | 40 | 1013.4 |
| 20260504193003 | 82 | 60 | 0.0 | 4.0 | 0.00 | 0.00 | 0.00 | 41 | 1013.5 |
| 20260504191502 | 81 | 67 | 1.0 | 8.0 | 0.00 | 0.00 | 0.00 | 39 | 1013.7 |
| 20260504190117 | 81 | 135 | 2.0 | 9.0 | 0.00 | 0.00 | 0.00 | 38 | 1014.0 |
| 20260504184607 | 82 | 46 | 1.0 | 7.0 | 0.00 | 0.00 | 0.00 | 40 | 1014.1 |
| 20260504183055 | 82 | 117 | 0.0 | 4.0 | 0.00 | 0.00 | 0.00 | 41 | 1014.3 |
| 20260504181553 | 81 | 120 | 1.0 | 5.0 | 0.00 | 0.00 | 0.00 | 43 | 1014.6 |
| 20260504180051 | 81 | 130 | 0.0 | 6.0 | 0.00 | 0.00 | 0.00 | 41 | 1014.6 |
| 20260504174600 | 79 | 105 | 2.0 | 8.0 | 0.00 | 0.00 | 0.00 | 43 | 1014.9 |
| 20260504173053 | 80 | 103 | 1.0 | 7.0 | 0.00 | 0.00 | 0.00 | 43 | 1014.9 |
| 20260504171547 | 80 | 121 | 0.0 | 6.0 | 0.00 | 0.00 | 0.00 | 43 | 1015.2 |